Temp
8 8 8 8 8 9 9 11 13 13 13 12 11 11 12 12 12 13 12 12 13 11 9 9 9 9 12 14 15 15 15 15 15 15 15 14 14 14 14 13 13 12 13 13 13 13 13
8 8 8 8 8 10 10 12 13 12 11 12 12 13 14 13 13 13 13 13 13 11 9 9 8 9 11 15 15 14 14 15 15 15 14 14 14 13 13 13 13 11 12 12 12 13 13
8 8 8 8 9 11 12 11 13 13 13 12 11 13 13 13 13 12 12 13 13 13 12 8 8 9 11 15 14 14 14 14 14 15 14 14 14 14 13 12 12 12 11 11 11 13 13
7 7 8 9 10 11 11 12 13 13 12 12 13 13 14 13 13 13 13 13 11 12 12 8 9 10 12 14 14 14 14 14 14 14 14 14 14 13 13 12 12 11 11 12 14 12 13
7 7 8 10 10 11 10 11 12 12 12 13 13 14 13 13 13 13 14 12 11 11 9 9 10 10 14 14 14 14 14 14 14 14 14 14 13 11 12 11 10 10 12 11 12 13 13
7 7 8 9 10 10 11 12 12 13 12 13 13 13 13 13 13 13 14 11 11 10 10 10 10 12 14 13 14 14 13 14 13 13 12 12 10 10 9 10 12 9 10 9 10 13 12
7 7 8 9 9 10 11 11 11 12 12 13 13 13 13 13 12 12 15 12 9 10 9 8 9 11 12 14 13 13 13 13 13 12 11 10 11 9 9 10 11 10 10 10 11 12 11
6 7 8 9 10 10 11 11 12 11 12 12 13 13 13 13 12 12 13 6 7 6 7 8 9 9 11 12 13 13 13 12 12 11 10 10 10 11 10 9 9 9 10 12 12 12 11
6 7 9 9 10 11 11 11 11 12 12 12 12 13 13 13 12 11 9 8 7 7 7 9 11 12 13 13 12 13 13 12 11 10 9 9 11 10 10 10 10 10 10 11 11 12 11
6 8 8 9 10 11 11 11 11 11 12 12 12 12 12 13 12 10 8 8 8 7 8 12 13 12 12 10 13 12 12 12 11 10 10 9 10 10 10 10 10 10 11 11 11 11 11
6 7 8 9 10 11 11 11 10 11 11 12 12 12 12 12 11 10 9 8 8 8 10 12 11 12 10 11 10 12 11 12 10 10 11 11 11 10 10 10 10 11 11 11 11 10 9
5 6 8 9 10 10 10 10 9 10 11 12 12 12 12 11 11 9 9 8 8 9 10 10 9 8 8 8 9 8 8 7 8 8 8 9 9 10 9 10 10 11 10 10 9 9 10
5 7 9 9 9 10 10 10 10 10 11 12 12 11 11 10 6 9 8 8 9 9 9 8 7 7 6 6 7 7 6 4 4 5 5 6 7 9 8 9 10 10 10 9 8 10 11
5 6 8 9 9 9 9 10 10 11 11 12 12 11 11 9 9 9 8 9 11 8 6 6 7 6 6 4 6 5 6 3 3 3 3 4 7 7 7 8 8 8 9 8 8 8 8
4 5 7 8 9 9 9 9 10 11 11 12 12 11 11 10 10 9 7 6 5 6 5 5 6 6 6 5 3 4 3 2 2 2 2 3 5 6 6 7 8 9 8 8 8 8 9
4 4 5 6 8 8 8 9 9 11 11 12 11 10 10 10 11 9 6 6 6 5 4 5 4 4 3 2 3 2 4 1 2 2 2 2 2 5 5 6 8 7 7 6 7 8 9
4 4 4 5 7 8 8 8 9 10 11 11 10 7 10 11 10 4 4 5 5 4 3 4 4 3 2 1 1 2 3 2 2 2 1 2 1 3 4 5 5 5 4 5 5 5 6
4 4 4 4 4 7 7 8 8 9 11 11 6 8 9 10 4 1 3 4 5 3 2 3 3 3 2 1 1 2 2 2 2 1 1 1 0 0 2 4 4 4 3 4 3 2 4
4 4 4 3 3 5 6 7 8 9 8 7 2 2 9 9 4 3 4 4 3 3 2 3 2 2 2 1 0 1 1 3 2 2 1 1 1 -0 2 4 2 2 3 4 3 4 4
3 3 3 3 3 3 5 7 8 9 8 8 2 6 1 -0 -1 2 3 2 2 3 3 2 2 1 0 0 0 0 1 2 2 1 4 2 -0 0 -1 1 2 1 2 3 2 2 2
3 3 3 3 3 3 4 6 7 8 8 8 -1 -0 -0 1 1 -0 1 2 2 1 2 1 2 1 -0 -1 -1 -1 0 -0 1 2 -0 -0 -0 -0 -0 1 1 1 1 2 2 2 1
3 3 3 3 3 3 3 4 6 8 8 3 0 1 -2 -1 -0 1 0 0 1 1 1 1 0 -0 -1 -2 -1 -1 -1 -1 -1 -1 -1 -1 -0 -0 -1 1 2 1 1 1 1 1 2
3 3 3 3 3 3 3 3 5 6 7 1 -0 -0 -1 0 -0 0 -0 0 1 0 1 1 0 -1 -1 0 -0 -1 -1 -1 -1 -1 -1 -2 -1 -0 -0 1 1 0 -1 -1 -0 -1 -1
3 3 3 2 2 2 2 2 3 4 4 3 -0 -0 -0 0 0 1 1 1 1 -0 -0 0 -0 -1 1 -2 -2 -2 -2 -1 -2 -1 -1 -2 -2 0 -1 0 -1 -2 -1 -0 -1 -2 -3
3 2 2 2 2 2 2 2 2 3 3 3 1 0 -1 -2 0 0 0 -0 -1 -2 -1 -1 -0 -0 -2 -2 -2 -1 -1 -0 0 0 -1 -1 -4 -1 -1 -2 -1 -2 -2 -3 -3 -3 -5
2 2 2 2 2 2 2 2 2 2 2 2 0 0 -1 -4 -1 -0 -1 -1 -2 -3 -3 -1 -1 -1 -2 -1 -1 -2 -2 -2 -1 -2 -0 1 -1 -3 -2 -2 -2 -4 -3 -3 -2 -3 -5
2 2 2 2 2 2 2 2 2 2 2 2 0 0 -0 -6 -2 -1 -2 -2 -2 -2 -4 -3 -2 -2 -2 -2 -1 -2 -3 -2 -3 -3 -3 -3 -2 -3 -2 -3 -3 -4 -3 -3 -3 -4 -5
2 2 2 2 1 2 2 2 2 1 1 1 1 0 0 -7 -3 -1 -0 -1 -2 -3 -4 -3 -3 -3 -3 -4 -1 -4 -5 -6 -6 -4 -4 -4 -4 -4 -3 -2 -3 -4 -4 -5 -5 -6 -5
2 1 1 1 1 1 1 1 1 1 1 1 1 0 -0 -1 -3 -1 -0 -0 -0 -0 -4 -6 -5 -5 -5 -6 -8 -8 -5 -9 -7 -7 -4 -4 -5 -5 -5 -3 -3 -4 -4 -4 -5 -6 -6
Height
857 855 852 850 847 845 842 838 835 832 828 825 820 816 812 807 804 799 796 793 789 786 785 784 783 781 782 784 781 779 779 779 781 781 781 783 785 786 788 789 788 790 784 781 780 779 780
858 856 853 851 848 845 842 839 835 832 828 824 820 816 811 806 802 797 794 790 786 784 782 781 780 780 781 783 777 777 779 779 779 780 781 782 784 785 787 789 789 787 784 781 779 776 773
859 857 854 851 848 846 842 839 836 832 828 824 819 814 809 805 800 796 792 787 783 780 778 777 777 780 781 778 777 777 778 779 780 779 781 782 782 784 786 787 785 782 782 778 775 767 767
860 857 854 852 849 846 843 839 835 831 827 823 818 813 808 803 798 794 790 785 783 781 779 779 780 781 778 777 777 777 778 778 779 780 780 781 782 784 785 785 785 786 785 779 764 767 761
861 858 855 852 849 846 843 839 835 831 827 822 816 811 806 802 796 793 788 783 783 782 782 782 783 782 780 779 778 778 779 779 779 780 781 781 782 788 787 791 794 795 783 786 775 763 763
861 859 856 853 850 847 843 840 836 831 826 821 815 809 805 800 795 791 785 782 782 783 782 782 783 784 781 783 779 778 778 779 780 781 783 784 789 793 797 797 787 799 790 788 783 765 764
862 860 857 854 851 848 844 840 836 831 826 820 814 809 804 799 795 791 784 781 786 786 785 791 792 788 783 780 778 778 778 779 779 782 787 787 790 794 787 787 782 784 786 781 770 767 768
863 861 858 855 852 848 845 840 836 831 826 820 814 808 803 799 795 794 789 792 801 804 800 789 788 787 783 782 782 779 780 782 783 786 787 789 786 776 778 784 785 785 778 766 759 756 762
863 861 859 855 852 849 845 840 835 830 825 820 814 808 804 799 796 795 795 800 800 801 805 793 787 786 785 784 782 780 780 781 783 786 789 789 774 773 775 778 778 773 777 764 762 752 755
864 861 859 856 853 849 845 840 835 830 824 819 813 808 804 799 799 798 798 800 800 800 804 793 786 786 786 784 784 781 780 782 782 783 782 786 774 771 770 772 773 766 759 755 755 759 754
864 862 859 856 853 849 845 840 835 829 823 817 812 807 805 801 802 802 804 799 799 800 818 795 794 791 791 791 794 785 784 780 782 781 781 770 769 772 770 766 765 756 753 752 751 754 757
865 863 860 857 854 849 844 840 834 828 822 816 810 807 805 804 803 802 800 800 801 809 818 805 803 806 805 800 797 794 793 791 792 789 781 776 776 772 767 759 757 752 754 752 753 753 745
865 863 860 857 854 849 844 838 833 827 820 815 809 808 805 804 804 800 799 801 814 822 811 817 820 816 819 815 806 806 811 817 821 812 806 791 778 768 771 765 757 757 757 753 761 744 729
866 863 860 857 853 848 843 838 831 825 819 813 808 807 807 806 801 799 799 804 808 826 832 828 822 822 818 826 817 818 815 827 826 828 824 812 787 780 783 776 772 766 759 763 758 752 746
867 864 861 858 853 848 843 837 830 823 817 810 807 808 808 804 800 798 804 833 844 842 843 839 828 823 825 829 836 828 832 837 835 835 837 823 799 785 785 784 778 764 764 767 762 749 745
868 866 862 858 854 849 843 837 830 822 815 809 808 809 810 804 801 800 818 838 843 846 847 843 842 841 844 846 843 843 830 840 837 836 836 827 821 795 791 784 773 780 778 774 763 750 732
869 867 863 860 855 850 844 837 829 821 815 809 808 812 812 804 803 814 845 846 846 848 850 850 850 849 855 856 854 848 836 841 840 838 836 832 828 805 799 792 791 788 791 782 772 771 757
870 867 864 862 857 851 845 838 830 822 815 810 812 820 815 806 827 848 852 849 852 853 852 851 849 852 856 857 855 848 843 840 840 841 838 834 833 825 810 791 792 789 798 794 795 799 784
871 868 865 863 859 853 847 840 832 825 819 817 827 831 819 811 842 854 851 853 856 855 856 854 854 853 855 857 861 850 844 838 840 840 839 833 829 828 806 792 799 803 798 798 797 788 787
871 869 867 863 860 855 849 842 835 827 823 821 831 835 839 840 855 854 856 861 860 857 857 856 856 857 862 862 860 854 848 840 839 839 828 830 835 832 834 817 813 807 802 802 801 804 795
872 870 868 865 861 857 851 845 838 830 825 825 840 859 859 864 862 866 862 863 864 865 860 860 857 862 868 869 862 857 850 846 841 835 838 837 832 830 824 816 815 812 810 800 799 801 805
874 873 870 867 864 860 855 849 843 834 831 833 850 855 863 868 867 865 867 870 868 868 867 863 865 865 865 867 861 857 856 849 850 842 843 839 832 828 825 810 806 808 809 809 804 805 804
873 874 872 869 867 864 859 854 848 843 837 845 853 855 856 867 870 870 874 870 868 870 865 863 865 867 863 856 853 851 849 846 849 848 845 843 837 827 820 808 807 811 823 824 820 820 820
874 875 872 872 869 867 864 859 855 852 850 851 855 855 859 867 868 866 867 869 868 871 871 865 864 864 857 852 847 843 842 842 845 844 842 843 839 825 825 816 820 836 832 826 826 832 836
876 874 874 873 872 870 868 865 862 859 859 857 858 857 862 873 869 868 867 870 871 872 870 868 863 859 857 855 855 852 848 843 841 839 841 841 851 835 835 839 826 831 838 841 839 832 842
876 875 875 874 874 871 870 870 867 865 863 863 862 860 862 874 874 869 870 872 876 876 876 867 861 858 858 857 856 863 860 857 852 851 840 835 839 849 838 837 834 854 843 839 830 831 839
876 876 875 876 876 873 872 871 870 868 866 866 866 864 864 876 872 870 873 874 872 875 879 872 867 864 860 864 860 864 867 861 865 865 859 852 848 848 845 849 847 854 845 833 838 844 841
875 876 876 877 875 874 874 873 872 871 868 869 868 866 867 874 872 870 869 870 871 876 882 871 873 869 867 873 862 874 881 879 882 868 867 863 863 860 850 843 846 854 848 857 855 850 844
875 876 876 876 875 876 876 874 873 872 870 869 868 867 867 870 872 871 869 869 869 870 873 876 878 877 875 881 887 888 876 891 886 888 865 868 874 873 870 855 852 855 856 855 854 849 841
Wind_Speed
12 13 14 15 16 17 18 20 21 22 22 23 25 25 26 25 23 24 21 22 22 19 16 13 9 6 1 1 4 4 3 4 3 4 3 3 4 4 4 3 2 4 4 3 5 6 6
12 13 14 15 16 18 19 20 21 22 23 25 26 28 28 25 25 23 21 24 24 19 14 10 6 1 3 3 2 3 3 2 3 3 3 4 3 4 2 2 4 2 5 8 5 7 7
12 13 15 16 17 18 19 20 22 23 25 26 27 28 28 26 26 20 24 26 17 11 9 3 3 3 2 4 2 3 3 2 1 2 3 2 2 3 3 4 2 4 7 7 7 6 8
12 14 15 16 17 19 20 22 23 25 26 28 29 29 27 25 27 20 25 22 9 8 7 4 4 2 3 2 2 3 3 2 2 3 2 2 3 3 2 4 5 4 2 5 3 3 4
12 14 15 16 18 19 20 22 24 25 27 29 30 29 26 26 27 21 26 11 5 7 5 4 1 1 3 3 3 3 3 1 4 4 3 4 3 1 2 1 3 2 6 4 7 4 1
12 14 15 17 18 20 21 23 25 27 29 30 31 30 25 26 23 22 24 4 1 2 1 2 1 2 5 3 4 3 1 2 2 3 3 3 4 0 1 2 5 4 6 6 6 3 3
12 14 15 17 18 20 22 24 26 27 28 30 31 30 24 26 18 21 21 2 6 3 9 2 5 2 3 9 2 0 1 4 2 4 2 0 1 8 9 9 6 3 6 13 15 12 12
12 14 16 17 19 21 23 25 27 28 29 31 31 27 22 24 13 16 20 7 3 2 6 4 4 4 6 3 3 2 3 2 1 3 1 0 10 9 5 5 8 8 14 19 15 13 10
12 14 15 17 19 21 24 26 27 28 30 30 31 25 20 22 6 10 19 8 2 4 0 6 2 2 4 4 2 4 3 1 4 3 5 6 6 3 1 4 7 12 11 14 13 10 6
12 13 15 17 19 22 24 26 28 29 30 30 30 22 16 16 2 8 3 15 2 5 4 6 3 4 7 4 1 3 2 2 2 4 3 6 4 3 3 6 7 14 11 17 16 6 8
12 14 15 18 20 23 25 27 29 30 31 30 29 16 16 13 5 4 12 11 4 2 5 4 5 5 8 6 6 2 8 2 4 5 2 6 5 7 10 9 6 10 8 11 12 8 4
12 13 15 18 21 23 25 27 29 30 31 31 25 9 17 9 7 7 13 1 1 5 5 4 5 7 7 7 6 8 8 8 2 4 4 10 5 4 4 4 6 6 5 5 2 4 8
11 13 16 19 21 24 26 28 30 31 31 31 19 4 22 12 12 14 4 1 4 4 5 8 5 7 5 6 6 8 5 8 5 8 6 9 4 2 6 6 5 9 6 3 2 4 6
11 14 16 19 21 24 26 29 31 33 32 31 13 1 14 18 12 7 1 5 3 3 4 3 4 8 3 10 4 8 3 4 6 4 4 5 6 6 11 4 5 10 4 3 6 3 4
11 14 16 19 22 25 27 30 32 33 33 26 7 2 10 30 12 5 4 5 1 2 4 7 10 4 3 5 6 8 4 3 4 6 4 4 6 12 14 4 2 5 3 5 5 7 6
11 14 17 19 22 25 28 30 33 33 33 20 3 2 12 26 9 4 5 4 1 3 5 4 4 6 5 7 7 9 3 2 5 6 1 4 8 4 5 8 2 5 6 4 3 5 7
11 13 17 20 23 26 28 31 33 33 32 15 3 3 21 15 7 7 4 2 3 4 6 6 4 5 3 4 3 4 4 2 3 6 6 4 4 8 9 4 13 8 5 4 3 3 3
10 13 17 20 23 26 29 32 34 34 31 11 3 3 24 10 5 3 3 3 5 5 6 4 2 2 2 4 4 3 3 2 1 4 8 3 4 6 13 19 6 5 6 11 4 6 4
9 13 16 19 23 26 29 32 33 30 27 6 3 2 15 10 4 3 3 3 3 5 5 5 4 4 3 3 6 4 4 4 4 10 5 4 3 6 10 4 5 4 8 12 6 5 4
9 12 15 18 21 25 29 31 32 28 21 5 3 3 5 6 2 4 2 3 5 4 2 3 2 4 5 3 5 6 11 6 12 10 19 6 3 6 9 13 11 14 15 11 2 2 4
9 11 14 17 20 23 27 31 32 27 20 5 4 1 2 3 5 4 3 2 3 6 5 7 2 6 5 4 5 3 6 9 11 9 5 3 6 5 11 14 14 14 14 10 2 4 2
8 11 13 16 18 21 26 30 31 29 12 12 3 3 3 2 2 2 5 2 2 4 2 2 4 7 4 3 5 13 12 14 5 6 5 3 3 5 8 8 5 0 10 10 9 12 4
8 9 12 15 17 19 23 27 30 32 17 8 5 3 3 3 1 1 1 1 1 3 3 3 3 2 5 5 7 14 12 11 7 4 3 3 3 6 3 9 4 6 13 15 12 10 5
8 7 12 12 15 16 19 23 24 27 26 13 5 3 3 1 2 1 2 1 3 4 3 5 2 1 5 8 8 4 4 3 4 4 5 5 6 4 4 7 3 6 12 11 12 9 11
6 8 10 11 13 14 16 18 19 20 19 21 13 4 3 2 1 2 1 2 4 5 2 3 3 4 8 5 5 5 5 6 4 3 3 4 2 4 3 3 1 6 13 11 11 5 12
6 7 7 9 10 11 13 14 14 16 13 14 18 9 5 4 2 1 2 1 1 3 6 4 4 6 4 1 2 1 2 4 4 9 5 8 1 2 3 3 3 5 14 15 9 5 13
6 5 6 7 8 10 11 11 11 13 13 12 10 14 5 3 2 2 1 1 2 0 2 4 6 6 4 3 2 2 3 2 3 5 6 5 3 2 4 2 2 10 13 13 5 7 20
6 4 5 5 7 9 9 9 10 10 10 10 4 7 5 2 4 1 1 1 1 2 1 4 3 3 3 4 3 2 0 2 2 3 4 3 4 3 3 3 2 14 9 6 6 14 15
6 5 5 5 7 7 6 8 9 9 8 8 2 6 3 2 3 3 3 2 5 4 3 1 4 2 2 2 2 1 2 1 2 2 4 2 3 3 2 4 9 12 10 7 14 15 15
Wind_Direction
28 26 23 19 16 12 10 8 9 6 2 356 352 349 346 345 346 342 338 335 333 320 311 308 305 312 113 124 258 122 152 160 163 156 153 149 167 180 218 202 266 227 279 288 280 302 272
27 25 23 19 15 14 11 9 6 2 358 355 352 350 348 348 346 343 339 336 331 321 312 299 284 156 145 201 135 188 183 154 148 161 156 157 200 206 236 240 191 269 263 267 265 250 244
27 23 22 19 15 13 11 5 5 2 358 354 350 349 348 347 347 346 338 335 334 335 330 281 170 161 124 203 8 179 164 119 145 162 146 190 189 151 157 287 300 286 301 292 214 231 235
25 21 21 18 16 12 8 6 4 1 357 355 352 351 348 348 349 349 341 338 343 352 356 74 132 153 212 12 31 142 165 112 109 143 128 131 129 118 184 314 348 308 275 317 9 154 249
22 20 18 17 14 10 6 3 2 360 358 357 354 352 349 349 348 350 344 343 13 19 61 111 27 342 61 16 47 6 217 127 131 115 93 111 74 105 41 66 332 306 274 276 317 236 272
21 19 17 15 12 8 6 4 3 1 358 357 354 352 350 349 349 353 349 348 349 23 16 281 339 18 15 323 320 336 185 160 112 111 49 51 48 173 59 107 260 257 263 253 248 295 327
23 18 17 14 10 7 5 3 0 359 358 355 354 352 350 349 353 3 0 75 18 354 36 89 276 237 267 316 291 47 129 133 88 72 194 274 257 228 216 203 225 256 265 272 277 272 281
22 18 16 13 9 7 5 2 360 357 356 354 353 350 350 350 354 8 33 69 115 223 325 305 257 276 255 317 335 10 161 134 148 235 168 286 249 242 205 207 234 239 264 277 283 269 198
22 19 15 11 10 6 3 1 358 355 354 354 351 349 350 348 360 10 58 57 332 149 205 306 254 347 321 351 324 304 157 137 213 232 206 197 241 112 247 235 238 240 243 262 248 282 248
22 20 14 11 8 5 2 358 355 353 353 353 349 349 352 357 30 1 54 351 337 165 63 323 353 0 346 333 117 318 288 247 264 262 244 236 275 233 244 249 202 273 229 248 261 260 264
20 18 13 9 7 4 0 357 353 351 351 352 349 355 0 12 342 38 327 337 137 160 2 323 347 338 335 44 323 35 30 312 257 261 317 257 280 293 280 257 184 261 251 245 250 237 245
21 16 13 9 6 2 359 355 351 350 350 352 350 11 9 0 357 328 330 69 166 41 257 14 360 357 5 1 0 320 17 26 0 303 249 272 322 262 258 276 230 278 307 265 197 195 240
23 16 13 9 5 1 358 354 352 350 350 350 351 37 21 18 325 335 347 84 23 116 341 350 339 354 343 327 353 8 48 32 22 349 5 320 277 305 17 343 328 9 344 283 298 223 251
23 17 14 9 5 1 358 355 352 351 350 350 351 149 12 1 351 349 8 42 71 23 358 333 321 307 53 13 17 349 33 28 20 18 303 330 326 14 356 19 298 296 221 258 275 251 273
22 19 15 9 6 2 360 357 353 353 351 351 4 81 2 351 354 355 69 49 66 334 301 329 317 5 11 13 1 359 48 30 52 22 348 313 263 330 337 342 278 321 324 318 259 248 259
25 20 16 12 8 7 3 359 356 353 353 355 27 70 8 351 2 43 68 102 77 28 332 349 357 38 350 337 358 11 310 356 350 18 212 298 295 284 319 321 269 44 284 308 251 269 241
30 23 20 13 12 10 6 2 358 354 356 357 51 57 353 360 33 48 86 93 65 30 23 24 4 317 353 343 310 284 295 60 8 330 327 299 235 293 337 336 313 326 13 308 274 25 301
34 29 24 15 14 13 9 7 2 358 359 8 48 45 354 10 49 33 60 26 34 2 12 13 88 69 344 340 303 288 319 288 73 340 331 279 274 278 286 270 305 144 71 35 19 334 306
39 33 28 19 15 13 11 11 6 2 5 359 68 317 4 34 76 31 13 61 72 18 20 12 354 55 35 327 339 293 334 330 356 347 321 289 280 319 319 109 43 11 349 347 302 242 254
45 39 30 23 17 15 13 15 11 5 9 44 71 28 1 34 32 93 51 26 1 13 110 356 313 48 1 293 237 283 303 314 340 323 318 5 288 259 268 279 309 304 319 326 267 269 337
55 46 35 28 24 19 17 19 16 11 16 59 25 85 173 12 25 55 65 64 9 0 5 14 56 10 339 298 297 248 305 309 310 315 336 315 272 274 264 273 279 282 301 320 300 264 334
61 46 40 36 27 24 22 21 23 21 26 66 93 100 34 74 5 51 9 42 32 323 287 320 352 315 293 231 250 289 316 306 265 324 337 343 289 306 292 298 328 326 38 32 22 15 4
79 53 46 38 34 30 27 27 31 33 44 77 52 92 102 334 36 92 87 328 43 343 277 298 290 283 293 274 270 285 269 266 260 283 304 303 300 311 294 324 312 114 12 37 5 39 350
86 68 55 43 41 36 33 34 38 39 45 77 61 92 82 84 94 105 107 8 324 318 259 298 322 303 269 322 298 283 269 232 178 267 225 297 324 297 296 332 57 111 37 18 356 60 35
101 79 61 47 47 42 38 36 38 39 36 53 43 59 84 112 241 142 45 40 330 327 324 291 295 249 319 325 358 346 345 5 355 337 324 238 338 313 343 302 254 25 6 345 335 307 30
117 88 67 50 54 50 43 42 40 35 34 44 47 48 85 115 268 62 72 63 48 323 329 279 302 320 3 5 348 331 9 320 326 331 346 343 163 111 324 316 347 4 336 319 294 242 352
120 91 74 56 55 50 47 45 40 37 38 38 47 36 76 97 285 82 123 120 124 314 262 296 330 352 9 10 353 10 326 263 328 316 336 335 348 350 319 291 116 354 347 323 21 317 333
128 108 80 76 57 49 42 42 42 29 27 22 51 39 43 115 290 201 177 131 103 101 158 289 24 2 336 33 8 322 64 276 356 305 336 357 325 337 322 316 350 23 353 8 340 315 313
136 111 100 75 60 46 31 25 29 26 18 9 19 354 29 139 229 301 301 320 217 227 156 343 180 241 233 55 11 73 286 6 176 294 3 33 35 304 360 299 354 356 330 342 334 321 320